RRR4101 LTAN-LCRA

Flight info

Callsign RRR4101
Flight time 1h 12m
Altitude 31000
Route SEHIR UB545 MUT UL620 EVKIT UB545 VESAR DCT EMEDA M67 IREFA
Aircraft A400/H-SDE2E3FGHIJ4J5M1RWXY/LB1D1

Departure

Time 2026-04-16 17:08
Airport Konya Airport (LTAN)

Arrival

Time 2026-04-16 18:20
Airport RAF Akrotiri (LCRA)
Time Latitude Longitude Altitude Speed Heading
2026-04-16 16:56 37.98205 32.55835 3389 ft 0 kts 195°
2026-04-16 17:03 37.98177 32.55825 3389 ft 0 kts 195°
2026-04-16 17:03 37.98155 32.55818 3389 ft 6 kts 194°
2026-04-16 17:03 37.98147 32.55831 3389 ft 1 kts 100°
2026-04-16 17:04 37.98155 32.55837 3389 ft 2 kts 33°
2026-04-16 17:04 37.98190 32.55858 3390 ft 9 kts 25°
2026-04-16 17:04 37.98250 32.55896 3390 ft 10 kts 33°
2026-04-16 17:04 37.98255 32.55996 3390 ft 14 kts 106°
2026-04-16 17:05 37.98186 32.56056 3391 ft 14 kts 202°
2026-04-16 17:05 37.98074 32.56011 3390 ft 20 kts 197°
2026-04-16 17:05 37.97934 32.55957 3389 ft 21 kts 196°
2026-04-16 17:05 37.97789 32.55902 3387 ft 23 kts 197°
2026-04-16 17:06 37.97634 32.55845 3388 ft 24 kts 198°
2026-04-16 17:06 37.97469 32.55783 3381 ft 25 kts 197°
2026-04-16 17:06 37.97300 32.55717 3380 ft 25 kts 196°
2026-04-16 17:06 37.97205 32.55794 3379 ft 14 kts 100°
2026-04-16 17:07 37.97188 32.55918 3378 ft 13 kts 64°
2026-04-16 17:07 37.97294 32.55969 3379 ft 43 kts 17°
2026-04-16 17:07 37.98004 32.56238 3399 ft 155 kts 16°
2026-04-16 17:07 37.99166 32.56661 3906 ft 188 kts 16°
2026-04-16 17:08 38.00481 32.57205 4596 ft 209 kts 21°
2026-04-16 17:08 38.01856 32.57973 5282 ft 220 kts 25°
2026-04-16 17:08 38.03231 32.58796 5802 ft 219 kts 25°
2026-04-16 17:08 38.04598 32.59595 5979 ft 217 kts 24°
2026-04-16 17:09 38.06011 32.60413 6000 ft 222 kts 24°
2026-04-16 17:09 38.07471 32.60823 5986 ft 215 kts 352°
2026-04-16 17:09 38.08753 32.59930 5990 ft 216 kts 310°
2026-04-16 17:09 38.09381 32.58216 5995 ft 222 kts 284°
2026-04-16 17:10 38.09401 32.56238 6046 ft 230 kts 259°
2026-04-16 17:10 38.08680 32.54368 6626 ft 248 kts 229°
2026-04-16 17:10 38.07258 32.53175 7846 ft 246 kts 196°
2026-04-16 17:10 38.05586 32.53109 9181 ft 241 kts 164°
2026-04-16 17:11 38.04010 32.53836 10431 ft 242 kts 154°
2026-04-16 17:11 38.02462 32.54703 11692 ft 245 kts 158°
2026-04-16 17:11 38.00788 32.55228 12888 ft 257 kts 174°
2026-04-16 17:11 37.98939 32.55043 13538 ft 287 kts 196°
2026-04-16 17:12 37.97113 32.53851 14214 ft 304 kts 216°
2026-04-16 17:12 37.95431 32.52153 15052 ft 313 kts 221°
2026-04-16 17:12 37.93752 32.50343 15933 ft 321 kts 221°
2026-04-16 17:12 37.92025 32.48491 16727 ft 330 kts 220°
2026-04-16 17:13 37.90082 32.46900 17610 ft 336 kts 207°
2026-04-16 17:13 37.87823 32.46036 18486 ft 343 kts 187°
2026-04-16 17:13 37.85436 32.46290 19269 ft 350 kts 164°
2026-04-16 17:13 37.83173 32.47457 20065 ft 354 kts 154°
2026-04-16 17:14 37.81037 32.49045 20826 ft 359 kts 147°
2026-04-16 17:14 37.78972 32.50852 21643 ft 362 kts 145°
2026-04-16 17:14 37.76930 32.52740 22465 ft 365 kts 144°
2026-04-16 17:14 37.74869 32.54646 23269 ft 369 kts 145°
2026-04-16 17:15 37.72772 32.56544 23959 ft 372 kts 146°
2026-04-16 17:15 37.70640 32.58426 24555 ft 376 kts 146°
2026-04-16 17:15 37.68469 32.60305 25133 ft 380 kts 147°
2026-04-16 17:15 37.66265 32.62186 25683 ft 383 kts 147°
2026-04-16 17:16 37.64045 32.64068 26227 ft 387 kts 147°
2026-04-16 17:16 37.61798 32.65967 26758 ft 390 kts 147°
2026-04-16 17:16 37.59530 32.67882 27269 ft 393 kts 147°
2026-04-16 17:16 37.57285 32.69779 27754 ft 396 kts 147°
2026-04-16 17:17 37.54990 32.71718 28230 ft 399 kts 147°
2026-04-16 17:17 37.52679 32.73671 28673 ft 402 kts 147°
2026-04-16 17:17 37.50346 32.75642 29078 ft 405 kts 147°
2026-04-16 17:17 37.47995 32.77626 29485 ft 408 kts 148°
2026-04-16 17:18 37.45631 32.79621 29903 ft 410 kts 148°
2026-04-16 17:18 37.43261 32.81620 30353 ft 410 kts 148°
2026-04-16 17:18 37.40894 32.83615 30776 ft 408 kts 148°
2026-04-16 17:18 37.38530 32.85604 30978 ft 410 kts 148°
2026-04-16 17:19 37.36154 32.87603 31002 ft 411 kts 148°
2026-04-16 17:19 37.31403 32.91595 31002 ft 410 kts 148°
2026-04-16 17:20 37.26680 32.95556 30998 ft 411 kts 148°
2026-04-16 17:20 37.21918 32.99544 30993 ft 412 kts 149°
2026-04-16 17:21 37.17138 33.03540 31006 ft 413 kts 149°
2026-04-16 17:21 37.12344 33.07543 30990 ft 413 kts 149°
2026-04-16 17:22 37.07558 33.11533 30991 ft 413 kts 149°
2026-04-16 17:22 37.02767 33.15521 30980 ft 413 kts 149°
2026-04-16 17:23 36.98007 33.19476 30982 ft 414 kts 149°
2026-04-16 17:23 36.93186 33.23476 30984 ft 417 kts 149°
2026-04-16 17:24 36.88341 33.27490 30967 ft 417 kts 149°
2026-04-16 17:24 36.83475 33.31421 30971 ft 417 kts 151°
2026-04-16 17:25 36.78539 33.35237 30968 ft 416 kts 151°
2026-04-16 17:25 36.73633 33.39001 30962 ft 416 kts 151°
2026-04-16 17:26 36.68702 33.42794 30945 ft 417 kts 151°
2026-04-16 17:26 36.63759 33.46602 30949 ft 418 kts 151°
2026-04-16 17:27 36.58811 33.50411 30934 ft 418 kts 151°
2026-04-16 17:27 36.53867 33.54213 30935 ft 418 kts 151°
2026-04-16 17:28 36.48955 33.57982 30921 ft 418 kts 151°
2026-04-16 17:28 36.44008 33.61773 30914 ft 417 kts 151°
2026-04-16 17:29 36.39067 33.65554 30926 ft 417 kts 151°
2026-04-16 17:29 36.34122 33.69331 30900 ft 417 kts 151°
2026-04-16 17:30 36.29165 33.73112 30905 ft 418 kts 152°
2026-04-16 17:30 36.24235 33.76866 30889 ft 418 kts 152°
2026-04-16 17:31 36.19281 33.80633 30886 ft 418 kts 152°
2026-04-16 17:31 36.14315 33.84402 30875 ft 417 kts 151°
2026-04-16 17:32 36.09363 33.88155 30874 ft 417 kts 152°
2026-04-16 17:32 36.04417 33.91898 30863 ft 417 kts 152°
2026-04-16 17:33 35.99470 33.95636 30859 ft 417 kts 152°
2026-04-16 17:33 35.94248 33.98445 30868 ft 409 kts 171°
2026-04-16 17:33 35.91445 33.98872 30863 ft 404 kts 183°
2026-04-16 17:34 35.88674 33.98549 30862 ft 398 kts 195°
2026-04-16 17:34 35.86071 33.97472 30860 ft 393 kts 208°
2026-04-16 17:34 35.83630 33.95958 30861 ft 392 kts 211°
2026-04-16 17:35 35.78926 33.92573 30858 ft 391 kts 214°
2026-04-16 17:35 35.74279 33.89074 30860 ft 391 kts 214°
2026-04-16 17:36 35.69652 33.85643 30857 ft 390 kts 214°
2026-04-16 17:36 35.64986 33.82238 30860 ft 390 kts 213°
2026-04-16 17:37 35.60316 33.78851 30859 ft 390 kts 213°
2026-04-16 17:37 35.55640 33.75466 30858 ft 390 kts 213°
2026-04-16 17:38 35.50967 33.72086 30859 ft 390 kts 213°
2026-04-16 17:38 35.46287 33.68703 30862 ft 390 kts 213°
2026-04-16 17:39 35.41642 33.65351 30858 ft 389 kts 213°
2026-04-16 17:39 35.36975 33.61987 30859 ft 388 kts 213°
2026-04-16 17:40 35.32316 33.58633 30856 ft 387 kts 213°
2026-04-16 17:40 35.27667 33.55291 30856 ft 387 kts 213°
2026-04-16 17:41 35.23023 33.51957 30854 ft 387 kts 213°
2026-04-16 17:41 35.18405 33.48647 30857 ft 386 kts 214°
2026-04-16 17:42 35.13770 33.45329 30856 ft 386 kts 214°
2026-04-16 17:42 35.09135 33.42014 30856 ft 386 kts 214°
2026-04-16 17:43 35.04490 33.38697 30849 ft 386 kts 214°
2026-04-16 17:43 34.99862 33.35397 30857 ft 385 kts 214°
2026-04-16 17:44 34.95267 33.32126 30749 ft 384 kts 214°
2026-04-16 17:44 34.92975 33.30497 30566 ft 376 kts 214°
2026-04-16 17:44 34.90721 33.28898 29856 ft 375 kts 214°
2026-04-16 17:44 34.88455 33.27287 28899 ft 377 kts 214°
2026-04-16 17:45 34.86188 33.25675 28057 ft 377 kts 214°
2026-04-16 17:45 34.83927 33.24069 27350 ft 374 kts 213°
2026-04-16 17:45 34.81691 33.22484 26665 ft 371 kts 213°
2026-04-16 17:45 34.79471 33.20911 25991 ft 367 kts 213°
2026-04-16 17:46 34.77266 33.19349 25345 ft 364 kts 213°
2026-04-16 17:46 34.75115 33.17827 24727 ft 361 kts 213°
2026-04-16 17:46 34.72950 33.16296 24121 ft 359 kts 212°
2026-04-16 17:46 34.70801 33.14776 23569 ft 355 kts 212°
2026-04-16 17:47 34.68677 33.13276 22927 ft 351 kts 212°
2026-04-16 17:47 34.66565 33.11784 22212 ft 350 kts 212°
2026-04-16 17:47 34.64469 33.10305 21557 ft 347 kts 212°
2026-04-16 17:47 34.62384 33.08834 20934 ft 345 kts 212°
2026-04-16 17:48 34.60319 33.07378 20317 ft 342 kts 212°
2026-04-16 17:48 34.58272 33.05936 19918 ft 339 kts 212°
2026-04-16 17:48 34.56260 33.04520 19804 ft 325 kts 212°
2026-04-16 17:48 34.54358 33.03185 19790 ft 307 kts 212°
2026-04-16 17:49 34.52554 33.01919 19793 ft 291 kts 212°
2026-04-16 17:49 34.50864 33.00733 19790 ft 276 kts 212°
2026-04-16 17:49 34.49241 32.99595 19791 ft 264 kts 212°
2026-04-16 17:49 34.47668 32.98490 19794 ft 258 kts 213°
2026-04-16 17:50 34.46125 32.97401 19797 ft 258 kts 213°
2026-04-16 17:50 34.44538 32.96186 19810 ft 283 kts 215°
2026-04-16 17:50 34.42797 32.94830 19810 ft 311 kts 213°
2026-04-16 17:50 34.40864 32.93475 19805 ft 328 kts 210°
2026-04-16 17:51 34.38793 32.92243 19803 ft 334 kts 207°
2026-04-16 17:51 34.37378 32.91490 19801 ft 335 kts 205°
2026-04-16 17:51 34.35228 32.90388 19801 ft 336 kts 205°
2026-04-16 17:51 34.33075 32.89287 19789 ft 335 kts 205°
2026-04-16 17:52 34.30943 32.88147 19801 ft 334 kts 206°
2026-04-16 17:52 34.28841 32.87006 19790 ft 324 kts 206°
2026-04-16 17:52 34.26916 32.85767 19789 ft 304 kts 213°
2026-04-16 17:52 34.25262 32.84310 19789 ft 286 kts 221°
2026-04-16 17:53 34.23894 32.82659 19793 ft 270 kts 230°
2026-04-16 17:53 34.22778 32.80906 19786 ft 257 kts 235°
2026-04-16 17:53 34.21833 32.79091 19792 ft 253 kts 238°
2026-04-16 17:53 34.20919 32.77272 19797 ft 251 kts 236°
2026-04-16 17:54 34.20053 32.75464 19798 ft 253 kts 246°
2026-04-16 17:54 34.19550 32.73422 19797 ft 255 kts 259°
2026-04-16 17:54 34.19508 32.71274 19796 ft 258 kts 274°
2026-04-16 17:54 34.20022 32.69191 19791 ft 263 kts 294°
2026-04-16 17:55 34.21224 32.67503 19793 ft 272 kts 320°
2026-04-16 17:55 34.22993 32.66631 19792 ft 282 kts 349°
2026-04-16 17:55 34.24947 32.66855 19790 ft 288 kts 19°
2026-04-16 17:55 34.26639 32.68161 19800 ft 297 kts 42°
2026-04-16 17:56 34.28147 32.70028 19814 ft 324 kts 49°
2026-04-16 17:56 34.29623 32.72261 19809 ft 353 kts 53°
2026-04-16 17:56 34.32575 32.77279 19795 ft 365 kts 55°
2026-04-16 17:57 34.34020 32.79701 19786 ft 346 kts 54°
2026-04-16 17:57 34.35455 32.81985 19798 ft 336 kts 52°
2026-04-16 17:57 34.36896 32.84185 19794 ft 330 kts 51°
2026-04-16 17:57 34.38319 32.86314 19796 ft 328 kts 51°
2026-04-16 17:58 34.39765 32.88462 19798 ft 328 kts 51°
2026-04-16 17:58 34.41204 32.90605 19793 ft 327 kts 50°
2026-04-16 17:58 34.42639 32.92753 19798 ft 328 kts 50°
2026-04-16 17:58 34.44071 32.94910 19800 ft 328 kts 50°
2026-04-16 17:59 34.45413 32.97144 19799 ft 327 kts 62°
2026-04-16 17:59 34.46170 32.99728 19797 ft 326 kts 83°
2026-04-16 17:59 34.46074 33.02430 19800 ft 320 kts 108°
2026-04-16 17:59 34.45086 33.04787 19797 ft 312 kts 134°
2026-04-16 18:00 34.43401 33.06355 19806 ft 302 kts 160°
2026-04-16 18:00 34.41399 33.06911 19808 ft 293 kts 183°
2026-04-16 18:00 34.39424 33.06490 19807 ft 287 kts 204°
2026-04-16 18:00 34.37776 33.05222 19809 ft 285 kts 224°
2026-04-16 18:01 34.36389 33.03497 19803 ft 287 kts 230°
2026-04-16 18:01 34.35104 33.01658 19798 ft 286 kts 231°
2026-04-16 18:01 34.33866 32.99772 19800 ft 286 kts 232°
2026-04-16 18:01 34.32639 32.97892 19796 ft 285 kts 232°
2026-04-16 18:02 34.31433 32.95982 19798 ft 286 kts 234°
2026-04-16 18:02 34.30332 32.93987 19794 ft 285 kts 239°
2026-04-16 18:02 34.29376 32.91879 19799 ft 286 kts 242°
2026-04-16 18:02 34.28433 32.89770 19799 ft 285 kts 240°
2026-04-16 18:03 34.27460 32.87680 19805 ft 285 kts 242°
2026-04-16 18:03 34.26754 32.85446 19798 ft 285 kts 254°
2026-04-16 18:03 34.26585 32.83052 19796 ft 289 kts 273°
2026-04-16 18:03 34.27163 32.80713 19796 ft 296 kts 294°
2026-04-16 18:04 34.28472 32.78762 19794 ft 305 kts 317°
2026-04-16 18:04 34.30371 32.77567 19796 ft 314 kts 342°
2026-04-16 18:04 34.32565 32.77420 19794 ft 323 kts
2026-04-16 18:04 34.34629 32.78407 19793 ft 327 kts 34°
2026-04-16 18:05 34.36275 32.80305 19803 ft 328 kts 49°
2026-04-16 18:05 34.37676 32.82483 19795 ft 329 kts 55°
2026-04-16 18:05 34.38944 32.84781 19800 ft 328 kts 58°
2026-04-16 18:05 34.40158 32.87116 19795 ft 327 kts 58°
2026-04-16 18:06 34.41368 32.89460 19794 ft 328 kts 57°
2026-04-16 18:06 34.42594 32.91790 19798 ft 328 kts 57°
2026-04-16 18:06 34.43832 32.94111 19799 ft 328 kts 57°
2026-04-16 18:06 34.45075 32.96439 19802 ft 329 kts 57°
2026-04-16 18:07 34.46316 32.98764 19801 ft 328 kts 57°
2026-04-16 18:07 34.47572 33.01114 19643 ft 343 kts 57°
2026-04-16 18:07 34.48915 33.03629 19293 ft 362 kts 57°
2026-04-16 18:07 34.50295 33.06212 18771 ft 367 kts 57°
2026-04-16 18:08 34.51676 33.08808 18192 ft 365 kts 57°
2026-04-16 18:08 34.53046 33.11380 17549 ft 362 kts 57°
2026-04-16 18:08 34.54411 33.13940 16898 ft 359 kts 57°
2026-04-16 18:08 34.55764 33.16468 16269 ft 357 kts 57°
2026-04-16 18:09 34.57112 33.18984 15648 ft 354 kts 57°
2026-04-16 18:09 34.58454 33.21480 15101 ft 350 kts 57°
2026-04-16 18:09 34.59784 33.23945 14571 ft 347 kts 57°
2026-04-16 18:09 34.61093 33.26392 13983 ft 344 kts 60°
2026-04-16 18:10 34.61923 33.29083 13378 ft 340 kts 82°
2026-04-16 18:10 34.61952 33.31916 12740 ft 334 kts 96°
2026-04-16 18:10 34.61695 33.34674 12119 ft 332 kts 98°
2026-04-16 18:10 34.61376 33.37435 11502 ft 329 kts 104°
2026-04-16 18:11 34.60729 33.40072 11038 ft 320 kts 115°
2026-04-16 18:11 34.59651 33.42342 10635 ft 303 kts 130°
2026-04-16 18:11 34.58114 33.44023 9902 ft 295 kts 152°
2026-04-16 18:11 34.56215 33.44843 9059 ft 286 kts 174°
2026-04-16 18:12 34.54269 33.44907 7894 ft 277 kts 185°
2026-04-16 18:12 34.52376 33.44604 7496 ft 275 kts 191°
2026-04-16 18:12 34.50463 33.44132 7233 ft 284 kts 192°
2026-04-16 18:12 34.48541 33.43609 6835 ft 282 kts 193°
2026-04-16 18:13 34.46720 33.42856 6464 ft 281 kts 206°
2026-04-16 18:13 34.45145 33.41468 6107 ft 282 kts 225°
2026-04-16 18:13 34.44100 33.39475 5722 ft 283 kts 251°
2026-04-16 18:13 34.43968 33.37126 5444 ft 283 kts 282°
2026-04-16 18:14 34.44629 33.34882 5120 ft 284 kts 296°
2026-04-16 18:14 34.45504 33.32738 4741 ft 282 kts 298°
2026-04-16 18:14 34.46405 33.30628 4351 ft 281 kts 300°
2026-04-16 18:14 34.47333 33.28498 4339 ft 291 kts 302°
2026-04-16 18:15 34.48672 33.26616 4460 ft 295 kts 327°
2026-04-16 18:15 34.50486 33.25665 4293 ft 275 kts 349°
2026-04-16 18:15 34.52293 33.25092 4084 ft 263 kts 344°
2026-04-16 18:15 34.53847 33.24006 3888 ft 257 kts 319°
2026-04-16 18:16 34.54787 33.22202 3754 ft 253 kts 290°
2026-04-16 18:16 34.55160 33.20141 3629 ft 247 kts 281°
2026-04-16 18:16 34.55383 33.18140 3382 ft 237 kts 279°
2026-04-16 18:16 34.55582 33.16170 2911 ft 232 kts 281°
2026-04-16 18:17 34.55779 33.14249 2403 ft 228 kts 281°
2026-04-16 18:17 34.55977 33.12357 1968 ft 223 kts 283°
2026-04-16 18:17 34.56172 33.10517 1661 ft 216 kts 282°
2026-04-16 18:17 34.56433 33.08792 1585 ft 201 kts 291°
2026-04-16 18:18 34.56806 33.07130 1487 ft 200 kts 291°
2026-04-16 18:18 34.57177 33.05562 1399 ft 186 kts 292°
2026-04-16 18:18 34.57501 33.04142 1268 ft 162 kts 296°
2026-04-16 18:18 34.57844 33.02862 941 ft 165 kts 296°
2026-04-16 18:19 34.58280 33.01513 523 ft 170 kts 295°
2026-04-16 18:19 34.58658 33.00194 162 ft 161 kts 291°
2026-04-16 18:19 34.58969 32.99059 98 ft 119 kts 289°
2026-04-16 18:19 34.59155 32.98328 97 ft 64 kts 288°
2026-04-16 18:20 34.59211 32.98116 97 ft 42 kts 288°
2026-04-16 18:20 34.59281 32.97856 97 ft 33 kts 289°
2026-04-16 18:20 34.59346 32.97604 99 ft 31 kts 287°
2026-04-16 18:21 34.59396 32.97380 98 ft 17 kts 262°
2026-04-16 18:21 34.59347 32.97347 98 ft 10 kts 195°
2026-04-16 18:21 34.59270 32.97355 98 ft 10 kts 153°
2026-04-16 18:21 34.59267 32.97357 98 ft 0 kts 151°
2026-04-16 18:22 34.59256 32.97367 97 ft 5 kts 143°
2026-04-16 18:22 34.59224 32.97406 96 ft 7 kts 130°
2026-04-16 18:22 34.59195 32.97485 99 ft 14 kts 108°
2026-04-16 18:23 34.59166 32.97601 97 ft 13 kts 106°
2026-04-16 18:23 34.59144 32.97701 97 ft 11 kts 103°
2026-04-16 18:23 34.59123 32.97786 97 ft 11 kts 107°
2026-04-16 18:23 34.59100 32.97875 97 ft 10 kts 108°
2026-04-16 18:24 34.59080 32.97951 98 ft 9 kts 107°
2026-04-16 18:24 34.59063 32.98015 97 ft 8 kts 107°
2026-04-16 18:24 34.59045 32.98083 98 ft 11 kts 108°
2026-04-16 18:24 34.59022 32.98166 99 ft 10 kts 108°
2026-04-16 18:25 34.59003 32.98239 98 ft 8 kts 108°
2026-04-16 18:25 34.58987 32.98303 97 ft 8 kts 107°
2026-04-16 18:25 34.58972 32.98361 99 ft 7 kts 107°
2026-04-16 18:25 34.58955 32.98426 97 ft 11 kts 107°
2026-04-16 18:26 34.58916 32.98570 98 ft 24 kts 109°
2026-04-16 18:26 34.58866 32.98763 99 ft 22 kts 108°
2026-04-16 18:26 34.58816 32.98953 98 ft 23 kts 108°
2026-04-16 18:26 34.58773 32.99117 98 ft 18 kts 108°
2026-04-16 18:27 34.58733 32.99266 98 ft 20 kts 109°
2026-04-16 18:27 34.58686 32.99444 98 ft 24 kts 107°
2026-04-16 18:27 34.58630 32.99662 96 ft 35 kts 108°
2026-04-16 18:27 34.58565 32.99847 98 ft 17 kts 141°
2026-04-16 18:28 34.58490 32.99842 96 ft 0 kts 195°
2026-04-16 18:28 34.58479 32.99840 98 ft 5 kts 185°
2026-04-16 18:28 34.58440 32.99857 100 ft 6 kts 180°
2026-04-16 18:28 34.58411 32.99837 -102 ft 2 kts 216°
2026-04-16 18:29 34.58409 32.99836 96 ft 0 kts 216°